TIME,DELAY(SENSOR),PRES,OXYGEN,RAWTEMP,T(OPTODE),TCPHASE,FLUOR,BETA(BETA700),BETA(BETA412),BETA(BETA440),CDOM,C(CSC),ED(ED411.90),ED(ED443.80),ED(ED489.40),ED(ED554.70),LU(LU412.20),LU(LU443.80),LU(LU489.40),LU(LU555.00),COMP,TILTX,TILTY,CHECK
1350942983,5802,857.7000122070312000,165.5773010253906200,430.5616149902344000,9.6690654754638670,39.0507392883300800,52,101,63,57,58,13520,2146962724,2147520859,2147289353,2147506706,2147088265,2146932964,2147704082,2147123346,1147,-1,9,27147
1350946579,5809,977.0999755859375000,203.0368957519531200,507.1765136718750000,7.3066778182983400,37.8386306762695300,53,102,65,58,59,13511,2146963465,2147519616,2147297133,2147519734,2147090761,2146928438,2147721280,2147119716,962,-1,8,42049
1350950179,5808,997.7199707031250000,216.8260955810547000,519.1467895507812000,6.9342322349548340,37.2391281127929700,52,103,64,57,58,13508,2146961408,2147517513,2147292973,2147523026,2147090240,2146920512,2147719241,2147118217,457,-1,8,25023
1350953779,5807,1006.5999755859375000,217.2407073974609400,519.1409301757812000,6.9344148635864260,37.2154083251953100,52,104,64,57,58,13507,2146963181,2147518884,2147295140,2147524269,2147090221,2146923209,2147725284,2147121874,300,-1,8,24335
1350957379,5808,1015.1300048828125000,217.8943939208984400,519.4899291992188000,6.9235429763793945,37.1839981079101560,53,103,65,57,59,13499,2146962230,2147515273,2147296941,2147521408,2147091062,2146920713,2147722669,2147117997,177,-1,8,28131
1350960979,5804,1018.3599853515625000,216.8032073974609400,519.2213134765625000,6.9319109916687010,37.2411804199218750,52,101,64,56,59,13504,2146964196,2147518930,2147295725,2147522267,2147090834,2146925696,2147728118,2147123565,3125,-1,8,16056
1350964579,5808,1024.6300048828125000,217.2868041992187500,518.8085937500000000,6.9447689056396480,37.2066688537597660,52,103,65,57,58,13494,2146964342,2147518893,2147295881,2147524873,2147091145,2146922048,2147721014,2147121481,985,-1,8,41735
1350968179,5805,1017.5300292968750000,215.9378967285156200,519.6362915039062000,6.9189801216125490,37.2979698181152340,53,104,64,57,58,13493,2146961051,2147516882,2147294710,2147521005,2147087616,2146924086,2147721709,2147115931,3366,-1,8,27065
1350971779,5807,1017.6799926757812000,218.4250030517578000,521.8751831054688000,6.8491978645324710,37.1962814331054700,52,104,65,56,59,13490,2146965440,2147519195,2147299117,2147523968,2147089188,2146925385,2147723108,2147123840,483,-1,8,45514
1350975379,5804,1019.9899902343750000,220.4129028320312500,522.3328247070312000,6.8349318504333500,37.0932083129882800,52,103,64,56,59,13493,2146962816,2147518820,2147297846,2147521408,2147089261,2146922706,2147727040,2147119945,109,-1,8,18561
1350978979,5806,1020.6500244140625000,219.5588073730468800,522.2194213867188000,6.8384661674499510,37.1387710571289060,53,105,65,57,59,13491,2146964068,2147518802,2147296841,2147519515,2147089810,2146924617,2147724370,2147117366,3071,-1,8,22406
1350982579,5807,1018.6300048828125000,221.9279937744140600,523.7863159179688000,6.7896060943603520,37.0346603393554700,52,105,63,57,58,13466,2146960384,2147516818,2147294445,2147521709,2147091382,2146923492,2147718893,2147117942,676,0,8,60267
1350986179,5807,1017.5000000000000000,221.6687011718750000,523.7863159179688000,6.7896060943603520,37.0488090515136700,52,103,64,57,59,13468,2146961490,2147516662,2147297225,2147518793,2147089993,2146921938,2147725403,2147118683,2957,-1,9,58156
1350989779,5807,1018.6199951171875000,222.2234954833984400,524.0206298828125000,6.7822961807250980,37.0221900939941400,52,103,64,57,59,13468,2146961124,2147519296,2147296722,2147523209,2147091254,2146925339,2147723986,2147123428,3021,0,8,54157
1350993379,5806,1021.8499755859375000,222.7557067871093800,524.0134887695312000,6.7825169563293460,36.9922485351562500,52,104,63,57,59,13467,2146962624,2147518738,2147297673,2147520795,2147088475,2146927963,2147722322,2147120512,597,-1,8,34564
1350996979,5805,1021.3499755859375000,221.3032989501953000,523.6331787109375000,6.7943792343139650,37.0661506652832000,52,103,65,57,58,13459,2146959579,2147518674,2147300187,2147520128,2147090112,2146921910,2147721353,2147120475,3049,-1,8,52753
1351000579,5808,1025.2500000000000000,220.6589050292968800,523.7576293945312000,6.7905011177062990,37.1045989990234400,53,101,63,58,59,13461,2146959040,2147517577,2147295862,2147518473,2147090971,2146921024,2147719936,2147121974,281,-1,8,56293
1351004179,5807,1021.5000000000000000,220.3701019287109400,523.7894287109375000,6.7895078659057620,37.1211891174316400,52,103,64,57,57,13462,2146964278,2147516269,2147298249,2147517686,2147091264,2146925174,2147721435,2147123721,344,-1,8,55503
1351007779,5806,1025.1800537109375000,220.6372070312500000,523.9168701171875000,6.7855329513549805,37.1088218688964840,52,103,64,57,57,13463,2146960292,2147518985,2147295652,2147522139,2147090157,2146929152,2147724608,2147118363,3497,-1,8,6124
1351011379,5807,1024.7700195312500000,220.5458984375000000,524.2850952148438000,6.7740468978881840,37.1202507019043000,51,102,64,57,57,13458,2146961014,2147520411,2147296064,2147523968,2147092050,2146923876,2147724004,2147123904,3553,-1,9,33429
1351014979,5808,1025.8800048828125000,221.2023925781250000,523.8322143554688000,6.7881731986999510,37.0754203796386700,52,102,63,57,58,13460,2146960768,2147516260,2147296027,2147522432,2147090907,2146923218,2147723145,2147124160,232,-1,8,27478
1351018579,5808,1023.6099853515625000,221.1558990478515600,523.4570922851562000,6.7998719215393070,37.0714797973632800,53,102,64,58,58,13458,2146963117,2147517860,2147296694,2147520996,2147094235,2146918235,2147723821,2147122157,235,-1,8,10530
1351022179,5806,1027.0600585937500000,222.5345001220703000,523.8624267578125000,6.7872319221496580,37.0018501281738300,52,104,64,57,58,13457,2146961152,2147515062,2147293302,2147520512,2147089810,2146920795,2147727753,2147121078,2266,-1,9,25799
1351025779,5804,1028.1400146484375000,221.7713928222656200,523.4901733398438000,6.7988390922546390,37.0382003784179700,52,125,63,56,59,13457,2146962468,2147516809,2147295716,2147524726,2147090907,2146919862,2147721636,2147118098,2992,-1,8,27286
1351029379,5806,1027.1099853515625000,221.3128967285156200,523.5184936523438000,6.7979569435119630,37.0642509460449200,52,103,65,57,59,13455,2146961325,2147518564,2147295515,2147523136,2147090989,2146919707,2147724480,2147121490,1028,-1,9,24450
1351032979,5808,1031.5899658203125000,220.7908020019531200,522.9838256835938000,6.8146328926086430,37.0832405090332000,53,106,65,58,58,13456,2146962358,2147518729,2147297115,2147523821,2147089974,2146924982,2147724946,2147120676,419,0,8,55480
1351036579,5806,1031.0100097656250000,221.1558990478515600,523.5737304687500000,6.7962360382080080,37.0736503601074200,52,101,64,55,59,13454,2146967076,2147518217,2147297316,2147522678,2147091702,2146926043,2147721645,2147120905,2819,-1,9,25743
1351040179,5805,1031.4899902343750000,221.9521942138672000,523.9033203125000000,6.7859539985656740,37.0346488952636700,53,103,64,57,59,13455,2146962157,2147517933,2147295643,2147521371,2147091401,2146925165,2147721408,2147122870,2919,-1,8,15346
1351043779,5807,1024.1500244140625000,220.6683959960937500,522.6234741210938000,6.8258690834045410,37.0836601257324200,53,108,64,56,59,13452,2146964580,2147513929,2147298998,2147521773,2147088868,2146923209,2147723154,2147119122,961,-1,8,14455
1351047379,5804,1023.6500244140625000,220.5256958007812500,523.2294921875000000,6.8069710731506350,37.1021385192871100,53,104,63,58,58,13453,2146959634,2147519771,2147296512,2147521718,2147090889,2146925449,2147724205,2147119488,3430,-1,8,11686
1351050979,5806,1017.9899902343750000,221.5680999755859400,523.8112182617188000,6.7888278961181640,37.0545082092285160,53,102,64,56,59,13450,2146958080,2147518729,2147294345,2147525028,2147091382,2146928301,2147720576,2147122276,3157,-1,8,29400
1351054579,5806,1017.5900268554688000,222.3724975585937500,524.0834960937500000,6.7803349494934080,37.0151786804199200,52,109,64,57,59,13450,2146961846,2147514651,2147294848,2147522971,2147088429,2146921965,2147726235,2147121243,516,-1,8,47973
1351058179,5807,1024.5600585937500000,222.1766967773437500,523.8334960937500000,6.7881331443786620,37.0210189819335940,52,101,64,56,59,13437,2146962176,2147519405,2147294363,2147525156,2147092342,2146923136,2147724790,2147120630,209,-1,8,32877
1351061779,5805,1021.5300292968750000,219.7528991699218800,523.4987182617188000,6.7985739707946780,37.1504096984863300,53,101,63,56,59,13436,2146959561,2147515437,2147296676,2147523209,2147090806,2146923428,2147725430,2147120612,3369,-1,8,42435
1351065379,5807,1021.4600219726562000,220.5066070556640600,523.5012207031250000,6.7984981536865230,37.1083106994628900,52,103,65,56,58,13433,2146964480,2147519817,2147297362,2147521078,2147090788,2146923081,2147719716,2147123209,3583,-1,8,53024
1351068979,5808,1028.3900146484375000,220.3766937255859400,522.8977050781250000,6.8173160552978520,37.1051597595214840,52,102,64,56,58,13432,2146962770,2147516662,2147296676,2147521252,2147091154,2146918637,2147721901,2147119003,2720,-1,9,42163
1351072579,5805,1024.4499511718750000,219.7341003417968800,522.4047851562500000,6.8326849937438965,37.1319694519043000,52,103,64,56,59,13430,2146960621,2147518125,2147295881,2147523739,2147092205,2146922550,2147720685,2147119771,2955,-1,9,58970
1351076179,5804,1024.3499755859375000,219.8083038330078000,522.6762695312500000,6.8242201805114750,37.1328697204589840,52,103,64,57,58,13430,2146962477,2147517787,2147295360,2147518582,2147093184,2146922413,2147724809,2147117147,2806,-1,9,14571
1351079779,5807,1026.1600341796875000,219.9915924072265600,523.1787719726562000,6.8085532188415530,37.1315383911132800,52,103,64,55,58,13430,2146962450,2147519204,2147295616,2147522605,2147090477,2146923702,2147720795,2147117824,370,-1,8,33306
1351083379,5805,1029.7700195312500000,220.5480041503906200,522.5302734375000000,6.8287730216979980,37.0886611938476560,52,104,63,57,59,13427,2146963629,2147517531,2147295049,2147522395,2147088914,2146925595,2147726308,2147122898,3039,-1,9,13209
1351086354,5805,1028.6999511718750000,219.5357971191406200,522.0888061523438000,6.8425388336181640,37.1373786926269500,52,103,64,56,58,13458,2146960548,2147517558,2147293174,2147519378,2147090148,2146923410,2147721280,2147122870,3213,-1,8,16821
